Location: Stuttgart
(48.8069°N, 9.1544°E)
Time: 04:04:56
(UTC+02:00)

ISS - Pass Details

Date: 12 May 2021
Orbit: 417 x 422 km, 51.6° (Epoch: 15 June)

Event Time Altitude Azimuth Distance (km) Brightness Sun altitude
Exits shadow 02:50:07 21° 292° (WNW) 994 -1.9 -20.1°
Maximum altitude 02:52:04 50° 1° (N) 549 -2.9 -20.0°
Drops below altitude 10° 02:55:23 10° 78° (ENE) 1,510 -0.5 -19.7°
Sets 02:57:32 0° 84° (E) 2,375 0.5 -19.6°
